Regional Weather Roundup
Issued by NWS Wilmington, NC

Home | Current Version | Previous Version | Text Only | Print | Product List | Glossary On
Versions: 1 2 3 4 5 6 7 8 9 10 11 12 13 14 15 16 17 18 19 20 21 22 23 24 25 26 27 28 29 30 31 32 33 34 35 36 37 38 39 40 41 42 43 44 45 46
000
ASUS42 KILM 302113
RWRILM
RWRILM
REGIONAL HOURLY WEATHER ROUNDUP
NATIONAL WEATHER SERVICE WILMINGTON NC
500 PM EDT SAT MAY 30 2015

NOTE: "FAIR" INDICATES FEW OR NO CLOUDS BELOW 12,000 FEET WITH NO
SIGNIFICANT WEATHER AND/OR OBSTRUCTIONS TO VISIBILITY.

...............WFO WILMINGTON COUNTY WARNING AREA...............

......COASTAL NC AND SC COUNTIES......

CITY           SKY/WX    TMP DP  RH WIND       PRES   REMARKS
WILMINGTON     SUNNY     81  65  58 SE10      30.15F
N MYRTLE BEACH SUNNY     80  66  62 SE12      30.15F
MYRTLE BEACH   MOSUNNY   81  64  57 SE8       30.17F

......INLAND NC AND SC COUNTIES.......

CITY           SKY/WX    TMP DP  RH WIND       PRES   REMARKS
LUMBERTON      MOSUNNY   89  65  44 SE9       30.10F HX  91
ELIZABETHTOWN  MOSUNNY   86  64  47 SE10      30.12F
WHITEVILLE     SUNNY     84  66  54 S8        30.13S
FLORENCE       SUNNY     89  62  40 SE14      30.11F
DARLINGTON     MOSUNNY   90  61  37 SE10      30.11F

....................REST OF NORTH CAROLINA......................

.........EASTERN NC.........

CITY           SKY/WX    TMP DP  RH WIND       PRES   REMARKS
CAPE HATTERAS  SUNNY     81  63  54 E8        30.17F
JACKSONVILLE   MOSUNNY   82  63  51 S12       30.15S
MOREHEAD CITY  SUNNY     80  64  58 E10       30.16F
KENANSVILLE    SUNNY     83  64  51 S5        30.13F
NEW BERN       SUNNY     84  63  49 SE14      30.16F
ELIZABETH CITY SUNNY     80  66  62 SE17      30.16F

.........CENTRAL NC.........

CITY           SKY/WX    TMP DP  RH WIND       PRES   REMARKS
RALEIGH DURHAM MOSUNNY   87  64  46 SE8       30.12F
ROCKY MOUNT    MOSUNNY   87  65  47 VRB7      30.12F
ROANOKE RAPIDS NOT AVBL
FAYETTEVILLE   SUNNY     88  62  41 E10       30.10F
HOFFMAN        MOSUNNY   87  60  40 SE10      30.14F

.........WESTERN NC.........

CITY           SKY/WX    TMP DP  RH WIND       PRES   REMARKS
CHARLOTTE      PTSUNNY   85  58  39 SE8       30.12F
GREENSBORO     PTSUNNY   85  61  44 S12       30.12F
HICKORY        NOT AVBL
BOONE          NOT AVBL
ASHEVILLE      NOT AVBL

.....................REST OF SOUTH CAROLINA.....................

.........EASTERN SC.........

CITY           SKY/WX    TMP DP  RH WIND       PRES   REMARKS
CHARLESTON     MOSUNNY   83  65  54 SE17      30.12F
BEAUFORT MCAS  MOSUNNY   82  69  64 E13       30.11F
HILTON HEAD    MOSUNNY   81  72  74 NE12      30.13F

.........CENTRAL SC.........

CITY           SKY/WX    TMP DP  RH WIND       PRES   REMARKS
COLUMBIA       MOSUNNY   89  60  37 SE9       30.09F
ORANGEBURG     PTSUNNY   86  63  45 SE9       30.10F
SUMTER SHAW    SUNNY     89  63  41 S7        30.09F

.........WESTERN SC.........

CITY           SKY/WX    TMP DP  RH WIND       PRES   REMARKS
GREENVILLE     NOT AVBL
ROCK HILL      SUNNY     82  63  52 S5        30.12F
ANDERSON       PTSUNNY   82  62  50 SE5       30.12F
CLEMSON        NOT AVBL
GREENWOOD      SUNNY     86  61  42 S6        30.12F


...................COASTAL AND OFFSHORE REPORTS..................

................LOCAL PIERS AND NC RESERVE................


STATION/POSITION TIME  SKY/WX   TEMP    WIND        PRES    VSBY
                                AIR SEA DIR/SP/G
                 (UTC)          (F)     (DEG/KT/KT) (MB)    (MI)
JOHNY MRCER PIER 2000            78 82  120/ 12/ 13 1021.0F
NC RESRV MASNBRO NOT AVBL
OCEAN CREST PIER 2002            78 81   70/ 14/ 16 1020.5F
SPRINGMAID  PIER 2000            79 80  110/  8/  9 1021.2F


................COASTAL AND OFFSHORE BUOYS................


STATION/POSITION TIME  SKY/WX   TEMP    WIND        PRES    VSBY
                                AIR SEA DIR/SP/G
                 (UTC)          (F)     (DEG/KT/KT) (MB)    (MI)
DIMNDSHOAL 41025 2050            78 81   90/  6/ 10 1021.6F
WVE H/P(F/S)=  4/10 WND WVE H/P(F/S)=  2/ 4 SWL H/P/D(F/S/D)=  3/100/10

CAPE LOOKOUT     2100            77     100/ 10/ 11 1021.1F
ONSLOW BAY 41036 NOT AVBL
5 WRITEBCH 41038 NOT AVBL
MASONBORO  41110 2019               79                N/A
WVE H/P(F/S)=  3/ 9 WND WVE H/P(F/S)=  3/ 9

WILM HARBR 41108 2011               79                N/A
WVE H/P(F/S)=  3/ 9 WND WVE H/P(F/S)=  3/ 9

27WRITEBCH 41037 2000               76  100/ 10/ 12   N/A
FRYING PAN 41013 2050            78 77   90/  8/ 10 1021.5F
WVE H/P(F/S)=  4/ 9 WND WVE H/P(F/S)=  2/ 4 SWL H/P/D(F/S/D)=  3/110/ 9

SUNST NRSH 41024 2008            76     140/  8/ 12 1021.1F
CAPRS NRSH 41029 2008            78     100/ 12/ 16 1020.8F
EDISTO     41004 2050            77 80   80/ 12/ 14 1019.8F
WVE H/P(F/S)=  4/ 9 WND WVE H/P(F/S)=  2/ 5 SWL H/P/D(F/S/D)=  3/ 9



..........OFFSHORE BUOYS BEYOND 100 NM OFFSHORE...........
.....IN A TRIANGLE---HAT TO BERMUDA TO BAHAMAS TO HAT.....


STATION/POSITION TIME  SKY/WX   TEMP    WIND        PRES    VSBY
                                AIR SEA DIR/SP/G
                 (UTC)          (F)     (DEG/KT/KT) (MB)    (MI)
150E HAT   41001 NOT AVBL
W BERMUDA  41048 2050            75 75   80/ 16/ 17 1019.3F
WVE H/P(F/S)=  7/ 9 WND WVE H/P(F/S)=  5/ 7 SWL H/P/D(F/S/D)=  5/100/ 9

ATLANTIC S 41049 2050            75 77  120/ 12/ 16 1017.6R
WVE H/P(F/S)=  5/ 9 WND WVE H/P(F/S)=  3/ 5 SWL H/P/D(F/S/D)=  3/ 90/ 9

E BAHAMAS  41046 2050            81 84  110/  4/  8 1015.3F
WVE H/P(F/S)=  5/ 9 SWL H/P/D(F/S/D)=  5/ 70/ 9

NE BAHAMAS 41047 2050            76 78   80/  6/  8 1015.6F
WVE H/P(F/S)=  5/ 9 WND WVE H/P(F/S)=  2/ 4 SWL H/P/D(F/S/D)=  5/ 80/ 9

120E CANVRL41010 2020            78 79   70/ 14/ 16 1018.5F

END


USA.gov is the U.S. government's official web portal to all federal, state and local government web resources and services.